sat.trackr.live / text

‹ back to catalog

STARLINK-35286

NORAD 65803 · 2025-218N

PAYLOAD ACTIVE UNKNOWN

§ Identity

Operator
Country
US
Launch date
2025-09-26
Launch site
AFWTR
Launch vehicle
Mass (kg)
RCS (m²)

Purposes: comms

External: N2YO · Heavens-Above · Gunter

§ Orbital elements

Epoch: 2026-05-25T02:23:21.117408Z

Period
95.64 min
Inclination
97.4525°
Eccentricity
0.0001942
Mean motion
15.05657685 rev/d
Perigee alt
548.1 km
Apogee alt
550.8 km
Semi-major
6,927.6 km
B*
4.3509e-4
RAAN
7.8369°
Arg perigee
81.7514°
Mean anomaly
278.3933°
Rev number
3,646

§ Raw data

STARLINK-352861 65803U 25218N   26145.09954997  .00006226  00000+0  43509-3 0  99992 65803  97.4525   7.8369 0001942  81.7514 278.3933 15.05657685 36463

JSON: /api/v1/satellites/65803 · /tle

For live sub-satellite position, see the globe view (requires WebGL).

§ Visibility from observer

Set your observer location to see the next 7 days of passes ≥ 10°. The values pass through the URL so the page stays shareable.

No JS? Fill the form by hand. The geolocation button needs JavaScript.